Wetterdaten: aktuell Samstag, 15.06.2019 02:40
Datum Zeit Temp. A. Temp. A. min Feuchte A. Luftdruck Regen Wind Richtung Richtung Sonnenschein Solar Taupunkt Windchill Windben
15.06.2019 02:40 17,3 C 17,3 C 83 % 1014,2 hPa 0,0 l/m 4,5 km/h (1 Bft) N 5 0 min 0 W/m 14,4 C 17,3 C 9,7 km/h (2 Bft)
15.06.2019 02:35 17,3 C 17,3 C 83 % 1014,4 hPa 0,0 l/m 4,7 km/h (1 Bft) NW 325 0 min 0 W/m 14,4 C 17,3 C 8,0 km/h (2 Bft)
15.06.2019 02:30 17,3 C 17,3 C 83 % 1014,6 hPa 0,0 l/m 4,0 km/h (1 Bft) N 5 0 min 0 W/m 14,4 C 17,3 C 6,4 km/h (2 Bft)
15.06.2019 02:25 17,3 C 17,3 C 83 % 1014,8 hPa 0,0 l/m 4,7 km/h (1 Bft) N-NW 348 0 min 0 W/m 14,4 C 17,3 C 8,0 km/h (2 Bft)
15.06.2019 02:20 17,4 C 17,4 C 82 % 1015,0 hPa 0,0 l/m 4,8 km/h (1 Bft) N 355 0 min 0 W/m 14,3 C 17,4 C 8,0 km/h (2 Bft)
15.06.2019 02:15 17,4 C 17,4 C 82 % 1015,3 hPa 0,0 l/m 3,4 km/h (1 Bft) NO 52 0 min 0 W/m 14,3 C 17,4 C 6,4 km/h (2 Bft)
15.06.2019 02:10 17,6 C 17,6 C 82 % 1015,4 hPa 0,0 l/m 4,3 km/h (1 Bft) N-NO 18 0 min 0 W/m 14,5 C 17,6 C 6,4 km/h (2 Bft)
15.06.2019 02:05 17,6 C 17,6 C 81 % 1015,6 hPa 0,0 l/m 4,3 km/h (1 Bft) N-NO 14 0 min 0 W/m 14,3 C 17,6 C 6,4 km/h (2 Bft)
15.06.2019 02:00 17,6 C 17,6 C 81 % 1015,9 hPa 0,0 l/m 3,2 km/h (1 Bft) N-NO 19 0 min 0 W/m 14,3 C 17,6 C 4,8 km/h (1 Bft)
15.06.2019 01:55 17,6 C 17,6 C 81 % 1015,9 hPa 0,0 l/m 3,7 km/h (1 Bft) N-NO 17 0 min 0 W/m 14,3 C 17,6 C 6,4 km/h (2 Bft)
15.06.2019 01:50 17,6 C 17,6 C 81 % 1016,2 hPa 0,0 l/m 2,0 km/h (1 Bft) W 266 0 min 0 W/m 14,3 C 17,6 C 4,8 km/h (1 Bft)
15.06.2019 01:45 17,6 C 17,6 C 81 % 1016,3 hPa 0,0 l/m 1,6 km/h (1 Bft) W 266 0 min 0 W/m 14,3 C 17,6 C 3,2 km/h (1 Bft)
15.06.2019 01:40 17,6 C 17,6 C 82 % 1016,4 hPa 0,0 l/m 1,5 km/h (1 Bft) W 266 0 min 0 W/m 14,5 C 17,6 C 3,2 km/h (1 Bft)
15.06.2019 01:35 17,6 C 17,6 C 81 % 1016,3 hPa 0,0 l/m 0,7 km/h (0 Bft) W 266 0 min 0 W/m 14,3 C 17,6 C 3,2 km/h (1 Bft)
15.06.2019 01:30 17,7 C 17,6 C 81 % 1016,4 hPa 0,0 l/m 1,8 km/h (1 Bft) W 266 0 min 0 W/m 14,4 C 17,7 C 3,2 km/h (1 Bft)
15.06.2019 01:25 17,7 C 17,7 C 81 % 1016,6 hPa 0,0 l/m 1,2 km/h (1 Bft) W 261 0 min 0 W/m 14,4 C 17,7 C 3,2 km/h (1 Bft)
15.06.2019 01:20 17,7 C 17,7 C 81 % 1016,6 hPa 0,0 l/m 3,4 km/h (1 Bft) N-NW 337 0 min 0 W/m 14,4 C 17,7 C 8,0 km/h (2 Bft)
15.06.2019 01:15 17,7 C 17,7 C 81 % 1016,6 hPa 0,0 l/m 4,6 km/h (1 Bft) N 355 0 min 0 W/m 14,4 C 17,7 C 8,0 km/h (2 Bft)
15.06.2019 01:10 17,7 C 17,7 C 81 % 1016,9 hPa 0,0 l/m 1,7 km/h (1 Bft) O-NO 63 0 min 0 W/m 14,4 C 17,7 C 4,8 km/h (1 Bft)
15.06.2019 01:05 17,8 C 17,8 C 81 % 1016,9 hPa 0,0 l/m 3,3 km/h (1 Bft) O-NO 63 0 min 0 W/m 14,5 C 17,8 C 6,4 km/h (2 Bft)
15.06.2019 01:00 17,8 C 17,8 C 81 % 1017,1 hPa 0,0 l/m 2,3 km/h (1 Bft) N-NW 347 0 min 0 W/m 14,5 C 17,8 C 4,8 km/h (1 Bft)
15.06.2019 00:55 17,8 C 17,8 C 80 % 1017,2 hPa 0,0 l/m 3,4 km/h (1 Bft) N-NW 346 0 min 0 W/m 14,3 C 17,8 C 6,4 km/h (2 Bft)
15.06.2019 00:50 17,8 C 17,8 C 80 % 1017,5 hPa 0,0 l/m 2,3 km/h (1 Bft) N-NO 13 0 min 0 W/m 14,3 C 17,8 C 6,4 km/h (2 Bft)
15.06.2019 00:45 17,9 C 17,9 C 80 % 1017,4 hPa 0,0 l/m 4,1 km/h (1 Bft) N 5 0 min 0 W/m 14,4 C 17,9 C 6,4 km/h (2 Bft)
15.06.2019 00:40 17,9 C 17,9 C 80 % 1017,4 hPa 0,0 l/m 2,9 km/h (1 Bft) O-NO 59 0 min 0 W/m 14,4 C 17,9 C 4,8 km/h (1 Bft)
15.06.2019 00:35 17,9 C 17,9 C 80 % 1017,5 hPa 0,0 l/m 3,1 km/h (1 Bft) O-NO 62 0 min 0 W/m 14,4 C 17,9 C 6,4 km/h (2 Bft)
15.06.2019 00:30 18,0 C 18,0 C 80 % 1017,5 hPa 0,0 l/m 3,2 km/h (1 Bft) N-NO 21 0 min 0 W/m 14,5 C 18,0 C 4,8 km/h (1 Bft)
15.06.2019 00:25 18,0 C 18,0 C 80 % 1017,7 hPa 0,0 l/m 2,5 km/h (1 Bft) N-NO 31 0 min 0 W/m 14,5 C 18,0 C 4,8 km/h (1 Bft)
15.06.2019 00:20 18,1 C 18,1 C 79 % 1017,8 hPa 0,0 l/m 1,0 km/h (0 Bft) N-NO 31 0 min 0 W/m 14,4 C 18,1 C 3,2 km/h (1 Bft)
15.06.2019 00:15 18,1 C 18,1 C 79 % 1017,7 hPa 0,0 l/m 3,5 km/h (1 Bft) N-NO 31 0 min 0 W/m 14,4 C 18,1 C 6,4 km/h (2 Bft)
15.06.2019 00:10 18,2 C 18,2 C 79 % 1017,7 hPa 0,0 l/m 1,8 km/h (1 Bft) O-NO 59 0 min 0 W/m 14,5 C 18,2 C 6,4 km/h (2 Bft)
15.06.2019 00:05 18,2 C 18,2 C 79 % 1017,7 hPa 0,0 l/m 2,7 km/h (1 Bft) N 5 0 min 0 W/m 14,5 C 18,2 C 4,8 km/h (1 Bft)
15.06.2019 00:00 18,2 C 18,2 C 79 % 1017,8 hPa 0,0 l/m 2,2 km/h (1 Bft) N 5 0 min 0 W/m 14,5 C 18,2 C 4,8 km/h (1 Bft)
_ Min-Zeit 02:25 02:25 00:00 02:40 - 01:35 - - - - 02:15 02:25 00:20
Minimum _ 17,3 C 17,3 C 79 % 1014,2 hPa - 0,7 km/h (0 Bft) - - - - 14,3 C 17,3 C 3,2 km/h (1 Bft)
_ Max-Zeit 00:00 00:00 02:25 00:00 00:00 02:20 - - 00:00 00:00 00:25 00:00 02:40
Maximum _ 18,3 C 18,2 C 83 % 1017,8 hPa 0,0 l/m 4,8 km/h
N (1 Bft)
- - 0 min 0 W/m 14,5 C 18,2 C 9,7 km/h
N-NO (2 Bft)
Durchschnitt _ 17,7 C 17,7 C 81 % 1016,5 hPa #0,0 l/m 3,0 km/h (1 Bft) N-NO - #0 min. 0 W/m 14,4 C 17,7 C 5,7 km/h (1 Bft)